Weather History for EGDR - September, 2012

Change the Weather History Date:

Sunday, September 30, 2012

  Actual Average Record
Temperature  
Mean Temperature 55 °F -  
Max Temperature 60 °F 56 °F 66 °F (2011)
Min Temperature 50 °F 48 °F 48 °F (2000)
Degree Days  
Heating Degree Days 10    
Growing Degree Days 5 (Base 50)    
Moisture  
Dew Point 52 °F    
Average Humidity 80    
Maximum Humidity 100    
Minimum Humidity 66    
Precipitation  
Precipitation 0.01 in - - ()
Sea Level Pressure  
Sea Level Pressure 30.08 in    
Wind  
Wind Speed 14 mph ()    
Max Wind Speed 23 mph    
Max Gust Speed 33 mph    
Visibility 6.3 miles    
Events Rain    
Averages and records for this station are not official NWS values.
T = Trace of Precipitation, MM = Missing Value Source: Averaged Metar Reports

Daily Weather History Graph

Daily Weather History Graph

Search for Another Location

Airport or City:

Trip Planner

Search our weather history database for the weather conditions in past years. The results will help you decide how hot, cold, wet, or windy it might be!

Date:

Astronomy

Sep. 30, 2012 Rise Set
Actual Time 7:20 AM BST 7:00 PM BST
Civil Twilight 6:47 AM BST 7:33 PM BST
Nautical Twilight 6:10 AM BST 8:10 PM BST
Astronomical Twilight 5:31 AM BST 8:49 PM BST
Moon 6:47 PM BST (9/30) 7:43 AM BST (9/30)
Length of Visible Light 12h 45m
Length of Day
11h 40m
Full, 100% of the Moon is Illuminated
Sep 30
Full
Oct 8
Last Quarter
Oct 15
New
Oct 22
First Quarter
Oct 29
Full

Hourly Weather History & Observations

Time (BST) Temp. Dew Point Humidity Pressure Visibility Wind Dir Wind Speed Gust Speed Precip Events Conditions
12:50 AM 54 °F 49 °F 77% 30.22 in 12 mi WSW 10.4 mph - -   Mostly Cloudy
12:50 AM 53.6 °F 48.2 °F 82% 30.21 in 6.2 mi WSW 10.4 mph - N/A   Scattered Clouds
1:50 AM 55.4 °F 48.2 °F 77% 30.18 in 6.2 mi WSW 11.5 mph - N/A   Mostly Cloudy
2:50 AM 55.4 °F 50.0 °F 82% 30.18 in 6.2 mi WSW 12.7 mph - N/A   Mostly Cloudy
3:50 AM 56 °F 48 °F 66% 30.17 in 12 mi WSW 12.7 mph - -   Mostly Cloudy
3:50 AM 55.4 °F 48.2 °F 77% 30.15 in 6.2 mi WSW 12.7 mph - N/A   Mostly Cloudy
4:50 AM 57.2 °F 48.2 °F 72% 30.15 in 6.2 mi WSW 13.8 mph 25.3 mph N/A   Mostly Cloudy
5:50 AM 57.2 °F 48.2 °F 72% 30.12 in 6.2 mi WSW 21.9 mph - N/A   Overcast
6:50 AM 57 °F 49 °F 68% 30.13 in 12 mi WSW 16.1 mph - -   Mostly Cloudy
6:50 AM 57.2 °F 50.0 °F 77% 30.12 in 6.2 mi WSW 16.1 mph 27.6 mph N/A   Mostly Cloudy
7:50 AM 57.2 °F 50.0 °F 77% 30.12 in 6.2 mi WSW 19.6 mph - N/A   Overcast
8:50 AM 57.2 °F 50.0 °F 77% 30.12 in 6.2 mi WSW 18.4 mph 29.9 mph N/A   Scattered Clouds
9:50 AM 58 °F 51 °F 70% 30.14 in 12 mi SW 16.1 mph - -   Mostly Cloudy
9:50 AM 59.0 °F 51.8 °F 77% 30.12 in 6.2 mi SW 16.1 mph - N/A   Mostly Cloudy
10:50 AM 59.0 °F 51.8 °F 77% 30.12 in 6.2 mi WSW 16.1 mph - N/A   Mostly Cloudy
11:50 AM 59.0 °F 51.8 °F 77% 30.12 in 6.2 mi WSW 18.4 mph 31.1 mph N/A   Mostly Cloudy
12:50 PM 59 °F 52 °F 71% 30.11 in 11 mi SW 16.1 mph - -   Haze
12:50 PM 59.0 °F 51.8 °F 77% 30.09 in 6.2 mi SW 16.1 mph 31.1 mph N/A   Haze
1:50 PM 60.8 °F 53.6 °F 77% 30.09 in 6.2 mi SW 21.9 mph - N/A   Haze
2:50 PM 60.8 °F 51.8 °F 72% 30.06 in 6.2 mi SW 19.6 mph 33.4 mph N/A   Mostly Cloudy
3:50 PM 60 °F 54 °F 73% 30.06 in 9 mi SW 21.9 mph - -   Haze
3:50 PM 59.0 °F 53.6 °F 82% 30.06 in 6.2 mi SW 21.9 mph - N/A   Haze
4:50 PM 59.0 °F 53.6 °F 82% 30.04 in 6.2 mi SW 19.6 mph 31.1 mph N/A   Haze
5:50 PM 59.0 °F 53.6 °F 82% 30.01 in 6.2 mi SW 21.9 mph - N/A Rain Light Rain
6:50 PM 58 °F 54 °F 83% 30.01 in 7 mi SW 18.4 mph - - Rain Light Drizzle
6:50 PM 59.0 °F 53.6 °F 82% 30.01 in 6.2 mi SW 18.4 mph - N/A   Light Drizzle
7:50 PM 59.0 °F 55.4 °F 88% 30.01 in 6.2 mi SW 18.4 mph 31.1 mph N/A   Light Drizzle
8:50 PM 59.0 °F 55.4 °F 88% 29.98 in 5.0 mi SW 18.4 mph - N/A   Haze
9:50 PM 58 °F 57 °F 94% 29.99 in 2 mi SW 18.4 mph - - Rain Light Rain
9:50 PM 57.2 °F 57.2 °F 100% 29.98 in 1.9 mi SW 18.4 mph - N/A Rain Light Rain
10:50 PM 57.2 °F 57.2 °F 100% 29.95 in 0.5 mi SW 23.0 mph - N/A   Unknown
11:06 PM 57.2 °F 57.2 °F 100% 29.95 in 0.5 mi SW 20.7 mph 32.2 mph N/A Rain Light Rain
11:50 PM 59.0 °F 57.2 °F 94% 29.95 in 0.5 mi SW 18.4 mph 29.9 mph N/A Rain Light Rain